FENGYUN 1C DEB, 36656

Orbit data source: Space-Track

FENGYUN 1C DEB, 36656 is space debris in SSO originally from a launch on Mon, 10 May 1999 UTC launched from the Taiyaun Space Center, China (TSC). Fengyun 1C debris stems from the Chinese weather satellite Fengyun-1C, which was intentionally destroyed by a Chinese anti-satellite missile in 2007. This event dramatically increased the amount of space debris, with thousands of trackable fragments posing hazards to satellites and human spaceflight. The Fengyun 1C debris cloud has become a focal point in discussions about space sustainability and the need for international regulations to prevent the creation of new debris.

Loading next visibility...
Identifier
36656, 1999-025DYA
Orbit
SSO
Country
Flag of CNCN / PRC
Related business
Manufacturer
Unknown
Mission
Spacecraft
Bus & Motor
Unknown
Mass
Unknown
Launch date (UTC)
1999-05-10 (27 years ago)
Launch vehicle
Unknown
Launch site
Taiyaun Space Center, China (TSC)
Object type
Payload
Rocket body
Debris
Shape & HBR
Unknown shape, 0.1 m
Radar Cross Section
Small (<0.1 m²)

Expand to show TLE details & history
Last TLE update: 1 week ago

TLE from 1 week ago
0 FENGYUN 1C DEB
1 36656U 99025DYA 26062.54361642  .00000966  00000-0  10223-2 0  9999
2 36656  97.4269 178.7258 0331849 305.9410  51.1363 13.54733560599394
Epoch: 2026-03-03T13:02Z
TLE epoch observation values (Epoch: 2026-03-03T13:02:48.458Z)
Latitude
-0.00005°
Longitude
-178.29726°
Altitude
908.078 km
Speed
7.472 km/s
True Right ascension
11h 54m 54s
True Declination
0° 00' 00"
Sunlit
Object was in full shadow at epoch
Visualization orbit readout
Latitude
Unknown
Longitude
Unknown
Altitude
Unknown
Speed
Unknown
Apparent Right ascension
Unknown
Apparent Declination
Unknown
Sunlit
N/A
Visualization observer readout
Local Sidereal Time
15:57:35
Azimuth
Unknown
Elevation
Unknown
Doppler factor
Unknown
Orbital elements
Apogee altitude
1,298.651 km
Perigee altitude
805.509 km
Semi-major axis
7,430.217 km
Eccentricity
0.03318
Inclination
97.4269°
RAAN
178.7258°
Arg. of periapsis
305.941°
True anomaly
54.17486°
Mean anomaly
51.1363°
Eccentric anomaly
52.64773°
Mean motion
3.38876 °/min
Orbital period
106.23 mins
BSTAR
0.0010223
Loading maneuver chart data...
Computing Atmospheric mass density...
Loading historical data...
Loading historical data...
Loading historical data...
Loading historical data...
Loading historical data...
Loading historical data...
Loading historical data...

Documentation

Showing up to 5 results
|